Regional Weather Roundup
Issued by NWS

Home | Current Version | Previous Version | Text Only | Print | Product List | Glossary On
Versions: 1 2 3 4 5 6 7 8 9 10 11 12 13 14 15 16 17 18 19 20 21 22 23 24 25 26 27 28 29 30 31 32 33 34 35 36 37 38 39 40 41 42 43 44 45 46 47 48 49 50
000
ASUS45 KREV 231110
RWRNV
NEVADA REGIONAL WEATHER ROUNDUP
NATIONAL WEATHER SERVICE RENO NV
400 AM PDT TUE MAY 23 2017

NOTE: "FAIR" INDICATES FEW OR NO CLOUDS BELOW 12,000 FEET WITH NO
SIGNIFICANT WEATHER AND/OR OBSTRUCTIONS TO VISIBILITY.

NVZ001-003-004-231200-
WESTERN NEVADA

CITY           SKY/WX    TMP DP  RH WIND       PRES   REMARKS
RENO           CLEAR     59  38  45 S5        30.18R
CARSON CITY    FAIR      50  37  62 CALM      30.20S
MINDEN         FAIR      43  37  81 CALM      30.20S
FALLON         CLEAR     54  30  40 SW3       30.13R
LOVELOCK       CLEAR     52  31  44 N3        30.14R
HAWTHORNE      CLEAR     57  32  38 W6        30.15R
$$

NVZ002-CAZ072-073-231200-
NORTHERN AND CENTRAL SIERRA

CITY           SKY/WX    TMP DP  RH WIND       PRES   REMARKS
S. LAKE TAHOE  CLEAR     42  39  89 VRB3      30.28S
TRUCKEE          N/A     37  37 100 CALM      30.28S FOG
SQUAW VLY 8000   N/A     39  32  75 E1          N/A
SUSANVILLE     CLEAR     50  39  66 CALM      30.16S
MAMMOTH LAKES  FAIR      46  31  55 W6        30.33S
BRIDGEPORT     FAIR      40  30  67 CALM      30.31S
$$

NVZ030-031-036-231200-
NORTHERN NEVADA

CITY           SKY/WX    TMP DP  RH WIND       PRES   REMARKS
ELKO           CLEAR     44  38  79 CALM      30.23R
WINNEMUCCA     CLEAR     40  34  79 SE3       30.18R
WENDOVER       CLEAR     56  38  50 CALM      30.16S
$$

NVZ035-037-231200-
CENTRAL NEVADA

CITY           SKY/WX    TMP DP  RH WIND       PRES   REMARKS
ELY            CLEAR     36  25  64 S12       30.28F
EUREKA           N/A     42  31  64 S8        30.24F
$$

NVZ013-014-231200-
SOUTH CENTRAL NEVADA

CITY           SKY/WX    TMP DP  RH WIND       PRES   REMARKS
TONOPAH        CLEAR     57  32  38 N14       30.21R
$$

NVZ017-020-022-231200-
SOUTHERN NEVADA

CITY           SKY/WX    TMP DP  RH WIND       PRES   REMARKS
LAS VEGAS      CLEAR     76  32  20 SW3       29.96R
N. LAS VEGAS   CLEAR     74  36  25 W5        29.97R
NELLIS AFB     CLEAR     76  32  20 E8        29.95R
HENDERSON      CLEAR     69  37  30 S7        30.01R
MERCURY        CLEAR     66  27  23 CALM      30.03R
$$



USA.gov is the U.S. government's official web portal to all federal, state and local government web resources and services.